"Time","Value","Approval","myLocation"
"2023-04-20 00:00",38.4767519734415,"Approved","OW429"
"2023-04-20 01:00",38.4766508668388,"Approved","OW429"
"2023-04-20 02:00",38.4726497602361,"Approved","OW429"
"2023-04-20 03:00",38.4697486536333,"Approved","OW429"
"2023-04-20 04:00",38.4648475470306,"Approved","OW429"
"2023-04-20 05:00",38.4559464404279,"Approved","OW429"
"2023-04-20 06:00",38.4490453338252,"Approved","OW429"
"2023-04-20 07:00",38.4413442272224,"Approved","OW429"
"2023-04-20 08:00",38.4355431206197,"Approved","OW429"
"2023-04-20 09:00",38.422042014017,"Approved","OW429"
"2023-04-20 10:00",38.4155409074142,"Approved","OW429"
"2023-04-20 11:00",38.4018398008115,"Approved","OW429"
"2023-04-20 12:00",38.3940386942088,"Approved","OW429"
"2023-04-20 13:00",38.3833375876061,"Approved","OW429"
"2023-04-20 14:00",38.3760364810033,"Approved","OW429"
"2023-04-20 15:00",38.3778353744006,"Approved","OW429"
"2023-04-20 16:00",38.3766342677979,"Approved","OW429"
"2023-04-20 17:00",38.3763331611951,"Approved","OW429"
"2023-04-20 18:00",38.3692320545924,"Approved","OW429"
"2023-04-20 19:00",38.3784309479897,"Approved","OW429"
"2023-04-20 20:00",38.3883298413869,"Approved","OW429"
"2023-04-20 21:00",38.3972287347842,"Approved","OW429"
"2023-04-20 22:00",38.4059276281815,"Approved","OW429"
"2023-04-20 23:00",38.4111265215788,"Approved","OW429"
"2023-04-21 00:00",38.415725414976,"Approved","OW429"
"2023-04-21 01:00",38.4221243083733,"Approved","OW429"
"2023-04-21 02:00",38.4246232017706,"Approved","OW429"
"2023-04-21 03:00",38.4287220951678,"Approved","OW429"
"2023-04-21 04:00",38.4302209885651,"Approved","OW429"
"2023-04-21 05:00",38.4336198819624,"Approved","OW429"
"2023-04-21 06:00",38.4394187753596,"Approved","OW429"
"2023-04-21 07:00",38.4424176687569,"Approved","OW429"
"2023-04-21 08:00",38.4436165621542,"Approved","OW429"
"2023-04-21 09:00",38.4442154555515,"Approved","OW429"
"2023-04-21 10:00",38.4451143489487,"Approved","OW429"
"2023-04-21 11:00",38.445613242346,"Approved","OW429"
"2023-04-21 12:00",38.4464121357433,"Approved","OW429"
"2023-04-21 13:00",38.4449110291405,"Approved","OW429"
"2023-04-21 14:00",38.4449099225378,"Approved","OW429"
"2023-04-21 15:00",38.4404088159351,"Approved","OW429"
"2023-04-21 16:00",38.4382077093324,"Approved","OW429"
"2023-04-21 17:00",38.4355066027296,"Approved","OW429"
"2023-04-21 18:00",38.4318054961269,"Approved","OW429"
"2023-04-21 19:00",38.4275043895242,"Approved","OW429"
"2023-04-21 20:00",38.4263032829214,"Approved","OW429"
"2023-04-21 21:00",38.4245021763187,"Approved","OW429"
"2023-04-21 22:00",38.419201069716,"Approved","OW429"
"2023-04-21 23:00",38.4112999631132,"Approved","OW429"
"2023-04-22 00:00",38.4082988565105,"Approved","OW429"
"2023-04-22 01:00",38.4024977499078,"Approved","OW429"
"2023-04-22 02:00",38.3951966433051,"Approved","OW429"
"2023-04-22 03:00",38.3920955367023,"Approved","OW429"
"2023-04-22 04:00",38.3848944300996,"Approved","OW429"
"2023-04-22 05:00",38.3793933234969,"Approved","OW429"
"2023-04-22 06:00",38.3753922168941,"Approved","OW429"
"2023-04-22 07:00",38.3736911102914,"Approved","OW429"
"2023-04-22 08:00",38.3711900036887,"Approved","OW429"
"2023-04-22 09:00",38.366688897086,"Approved","OW429"
"2023-04-22 10:00",38.3638877904832,"Approved","OW429"
"2023-04-22 11:00",38.3600866838805,"Approved","OW429"
"2023-04-22 12:00",38.3532855772778,"Approved","OW429"
"2023-04-22 13:00",38.347084470675,"Approved","OW429"
"2023-04-22 14:00",38.3433833640723,"Approved","OW429"
"2023-04-22 15:00",38.3377822574696,"Approved","OW429"
"2023-04-22 16:00",38.3307811508668,"Approved","OW429"
"2023-04-22 17:00",38.3248800442641,"Approved","OW429"
"2023-04-22 18:00",38.3173789376614,"Approved","OW429"
"2023-04-22 19:00",38.3071778310587,"Approved","OW429"
"2023-04-22 20:00",38.3031767244559,"Approved","OW429"
"2023-04-22 21:00",38.2998756178532,"Approved","OW429"
"2023-04-22 22:00",38.2936745112505,"Approved","OW429"
"2023-04-22 23:00",38.2889734046477,"Approved","OW429"
"2023-04-23 00:00",38.286872298045,"Approved","OW429"
"2023-04-23 01:00",38.2849711914423,"Approved","OW429"
"2023-04-23 02:00",38.2828700848395,"Approved","OW429"
"2023-04-23 03:00",38.2807689782368,"Approved","OW429"
"2023-04-23 04:00",38.2806678716341,"Approved","OW429"
"2023-04-23 05:00",38.2839667650314,"Approved","OW429"
"2023-04-23 06:00",38.2904656584286,"Approved","OW429"
"2023-04-23 07:00",38.2968645518259,"Approved","OW429"
"2023-04-23 08:00",38.2968634452232,"Approved","OW429"
"2023-04-23 09:00",38.2989623386204,"Approved","OW429"
"2023-04-23 10:00",38.3073612320177,"Approved","OW429"
"2023-04-23 11:00",38.312360125415,"Approved","OW429"
"2023-04-23 12:00",38.3159590188123,"Approved","OW429"
"2023-04-23 13:00",38.3202579122095,"Approved","OW429"
"2023-04-23 14:00",38.3242568056068,"Approved","OW429"
"2023-04-23 15:00",38.3237556990041,"Approved","OW429"
"2023-04-23 16:00",38.3218545924013,"Approved","OW429"
"2023-04-23 17:00",38.3219534857986,"Approved","OW429"
"2023-04-23 18:00",38.3203523791959,"Approved","OW429"
"2023-04-23 19:00",38.3230512725931,"Approved","OW429"
"2023-04-23 20:00",38.3306501659904,"Approved","OW429"
"2023-04-23 21:00",38.3337490593877,"Approved","OW429"
"2023-04-23 22:00",38.335347952785,"Approved","OW429"
"2023-04-23 23:00",38.3397468461822,"Approved","OW429"
"2023-04-24 00:00",38.3459457395795,"Approved","OW429"
"2023-04-24 01:00",38.3530446329768,"Approved","OW429"
"2023-04-24 02:00",38.357543526374,"Approved","OW429"
"2023-04-24 03:00",38.3635424197713,"Approved","OW429"
"2023-04-24 04:00",38.3697413131686,"Approved","OW429"
"2023-04-24 05:00",38.3763402065658,"Approved","OW429"
"2023-04-24 06:00",38.3834390999631,"Approved","OW429"
"2023-04-24 07:00",38.3943379933604,"Approved","OW429"
"2023-04-24 08:00",38.3990368867576,"Approved","OW429"
"2023-04-24 09:00",38.4035357801549,"Approved","OW429"
"2023-04-24 10:00",38.4066346735522,"Approved","OW429"
"2023-04-24 11:00",38.4094335669495,"Approved","OW429"
"2023-04-24 12:00",38.4116324603467,"Approved","OW429"
"2023-04-24 13:00",38.414031353744,"Approved","OW429"
"2023-04-24 14:00",38.4122302471413,"Approved","OW429"
"2023-04-24 15:00",38.4183291405385,"Approved","OW429"
"2023-04-24 16:00",38.4169280339358,"Approved","OW429"
"2023-04-24 17:00",38.4223269273331,"Approved","OW429"
"2023-04-24 18:00",38.4223258207304,"Approved","OW429"
"2023-04-24 19:00",38.4202247141276,"Approved","OW429"
"2023-04-24 20:00",38.4257236075249,"Approved","OW429"
"2023-04-24 21:00",38.4246225009222,"Approved","OW429"
"2023-04-24 22:00",38.4280213943194,"Approved","OW429"
"2023-04-24 23:00",38.4276202877167,"Approved","OW429"
"2023-04-25 00:00",38.424519181114,"Approved","OW429"
"2023-04-25 01:00",38.4280180745113,"Approved","OW429"
"2023-04-25 02:00",38.4251169679085,"Approved","OW429"
"2023-04-25 03:00",38.4250158613058,"Approved","OW429"
"2023-04-25 04:00",38.4245147547031,"Approved","OW429"
"2023-04-25 05:00",38.4215136481003,"Approved","OW429"
"2023-04-25 06:00",38.4188125414976,"Approved","OW429"
"2023-04-25 07:00",38.4181114348949,"Approved","OW429"
"2023-04-25 08:00",38.4188103282921,"Approved","OW429"
"2023-04-25 09:00",38.4135092216894,"Approved","OW429"
"2023-04-25 10:00",38.4148081150867,"Approved","OW429"
"2023-04-25 11:00",38.413907008484,"Approved","OW429"
"2023-04-25 12:00",38.4077059018812,"Approved","OW429"
"2023-04-25 13:00",38.4049047952785,"Approved","OW429"
"2023-04-25 14:00",38.4014036886758,"Approved","OW429"
"2023-04-25 15:00",38.399402582073,"Approved","OW429"
"2023-04-25 16:00",38.3968014754703,"Approved","OW429"
"2023-04-25 17:00",38.3952003688676,"Approved","OW429"
"2023-04-25 18:00",38.3967992622648,"Approved","OW429"
"2023-04-25 19:00",38.3953981556621,"Approved","OW429"
"2023-04-25 20:00",38.3986970490594,"Approved","OW429"
"2023-04-25 21:00",38.3975959424567,"Approved","OW429"
"2023-04-25 22:00",38.3954948358539,"Approved","OW429"
"2023-04-25 23:00",38.3889937292512,"Approved","OW429"
"2023-04-26 00:00",38.3884926226485,"Approved","OW429"
"2023-04-26 01:00",38.3849915160457,"Approved","OW429"
"2023-04-26 02:00",38.379090409443,"Approved","OW429"
"2023-04-26 03:00",38.3766893028403,"Approved","OW429"
"2023-04-26 04:00",38.3799881962375,"Approved","OW429"
"2023-04-26 05:00",38.3747870896348,"Approved","OW429"
"2023-04-26 06:00",38.3748859830321,"Approved","OW429"
"2023-04-26 07:00",38.3780848764294,"Approved","OW429"
"2023-04-26 08:00",38.3765837698266,"Approved","OW429"
"2023-04-26 09:00",38.3814826632239,"Approved","OW429"
"2023-04-26 10:00",38.3818815566212,"Approved","OW429"
"2023-04-26 11:00",38.3782804500184,"Approved","OW429"
"2023-04-26 12:00",38.3724793434157,"Approved","OW429"
"2023-04-26 13:00",38.371478236813,"Approved","OW429"
"2023-04-26 14:00",38.3694771302102,"Approved","OW429"
"2023-04-26 15:00",38.3668760236075,"Approved","OW429"
"2023-04-26 16:00",38.3654749170048,"Approved","OW429"
"2023-04-26 17:00",38.3717738104021,"Approved","OW429"
"2023-04-26 18:00",38.3752727037993,"Approved","OW429"
"2023-04-26 19:00",38.3787715971966,"Approved","OW429"
"2023-04-26 20:00",38.3806704905939,"Approved","OW429"
"2023-04-26 21:00",38.3803693839911,"Approved","OW429"
"2023-04-26 22:00",38.3799682773884,"Approved","OW429"
"2023-04-26 23:00",38.3811671707857,"Approved","OW429"
"2023-04-27 00:00",38.382966064183,"Approved","OW429"
"2023-04-27 01:00",38.3826649575802,"Approved","OW429"
"2023-04-27 02:00",38.3841638509775,"Approved","OW429"
"2023-04-27 03:00",38.3853627443748,"Approved","OW429"
"2023-04-27 04:00",38.386661637772,"Approved","OW429"
"2023-04-27 05:00",38.3912605311693,"Approved","OW429"
"2023-04-27 06:00",38.3946594245666,"Approved","OW429"
"2023-04-27 07:00",38.3975583179638,"Approved","OW429"
"2023-04-27 08:00",38.3966572113611,"Approved","OW429"
"2023-04-27 09:00",38.3923561047584,"Approved","OW429"
"2023-04-27 10:00",38.3930549981557,"Approved","OW429"
"2023-04-27 11:00",38.3930538915529,"Approved","OW429"
"2023-04-27 12:00",38.3894527849502,"Approved","OW429"
"2023-04-27 13:00",38.3829516783475,"Approved","OW429"
"2023-04-27 14:00",38.3781505717447,"Approved","OW429"
"2023-04-27 15:00",38.372149465142,"Approved","OW429"
"2023-04-27 16:00",38.3701483585393,"Approved","OW429"
"2023-04-27 17:00",38.3662472519366,"Approved","OW429"
"2023-04-27 18:00",38.3623461453338,"Approved","OW429"
"2023-04-27 19:00",38.3582450387311,"Approved","OW429"
"2023-04-27 20:00",38.3575439321284,"Approved","OW429"
"2023-04-27 21:00",38.3572428255256,"Approved","OW429"
"2023-04-27 22:00",38.3584417189229,"Approved","OW429"
"2023-04-27 23:00",38.3571406123202,"Approved","OW429"
"2023-04-28 00:00",38.3541395057174,"Approved","OW429"
"2023-04-28 01:00",38.3538383991147,"Approved","OW429"
"2023-04-28 02:00",38.351237292512,"Approved","OW429"
"2023-04-28 03:00",38.3475361859093,"Approved","OW429"
"2023-04-28 04:00",38.3466350793065,"Approved","OW429"
"2023-04-28 05:00",38.3468339727038,"Approved","OW429"
"2023-04-28 06:00",38.3451328661011,"Approved","OW429"
"2023-04-28 07:00",38.3431317594983,"Approved","OW429"
"2023-04-28 08:00",38.3416306528956,"Approved","OW429"
"2023-04-28 09:00",38.3369295462929,"Approved","OW429"
"2023-04-28 10:00",38.3332284396901,"Approved","OW429"
"2023-04-28 11:00",38.3296273330874,"Approved","OW429"
"2023-04-28 12:00",38.3277262264847,"Approved","OW429"
"2023-04-28 13:00",38.321925119882,"Approved","OW429"
"2023-04-28 14:00",38.3156240132792,"Approved","OW429"
"2023-04-28 15:00",38.3116229066765,"Approved","OW429"
"2023-04-28 16:00",38.3077218000738,"Approved","OW429"
"2023-04-28 17:00",38.304720693471,"Approved","OW429"
"2023-04-28 18:00",38.3025195868683,"Approved","OW429"
"2023-04-28 19:00",38.3026184802656,"Approved","OW429"
"2023-04-28 20:00",38.3070173736629,"Approved","OW429"
"2023-04-28 21:00",38.3112162670601,"Approved","OW429"
"2023-04-28 22:00",38.3148151604574,"Approved","OW429"
"2023-04-28 23:00",38.3167140538547,"Approved","OW429"
"2023-04-29 00:00",38.3180129472519,"Approved","OW429"
"2023-04-29 01:00",38.3197118406492,"Approved","OW429"
"2023-04-29 02:00",38.3217107340465,"Approved","OW429"
"2023-04-29 03:00",38.3248096274437,"Approved","OW429"
"2023-04-29 04:00",38.327608520841,"Approved","OW429"
"2023-04-29 05:00",38.3290074142383,"Approved","OW429"
"2023-04-29 06:00",38.3354063076356,"Approved","OW429"
"2023-04-29 07:00",38.3392052010328,"Approved","OW429"
"2023-04-29 08:00",38.3407040944301,"Approved","OW429"
"2023-04-29 09:00",38.3419029878274,"Approved","OW429"
"2023-04-29 10:00",38.3403018812246,"Approved","OW429"
"2023-04-29 11:00",38.3411007746219,"Approved","OW429"
"2023-04-29 12:00",38.3410996680192,"Approved","OW429"
"2023-04-29 13:00",38.3363985614164,"Approved","OW429"
"2023-04-29 14:00",38.3351974548137,"Approved","OW429"
"2023-04-29 15:00",38.330396348211,"Approved","OW429"
"2023-04-29 16:00",38.3249952416083,"Approved","OW429"
"2023-04-29 17:00",38.3299941350055,"Approved","OW429"
"2023-04-29 18:00",38.3304930284028,"Approved","OW429"
"2023-04-29 19:00",38.3306919218001,"Approved","OW429"
"2023-04-29 20:00",38.3334908151973,"Approved","OW429"
"2023-04-29 21:00",38.3357897085946,"Approved","OW429"
"2023-04-29 22:00",38.3353886019919,"Approved","OW429"
"2023-04-29 23:00",38.3332874953892,"Approved","OW429"
"2023-04-30 00:00",38.3328863887864,"Approved","OW429"
"2023-04-30 01:00",38.3320852821837,"Approved","OW429"
"2023-04-30 02:00",38.331884175581,"Approved","OW429"
"2023-04-30 03:00",38.3327830689782,"Approved","OW429"
"2023-04-30 04:00",38.3335819623755,"Approved","OW429"
"2023-04-30 05:00",38.3339808557728,"Approved","OW429"
"2023-04-30 06:00",38.33667974917,"Approved","OW429"
"2023-04-30 07:00",38.3395786425673,"Approved","OW429"
"2023-04-30 08:00",38.3419775359646,"Approved","OW429"
"2023-04-30 09:00",38.3429764293619,"Approved","OW429"
"2023-04-30 10:00",38.3419753227591,"Approved","OW429"
"2023-04-30 11:00",38.3456742161564,"Approved","OW429"
"2023-04-30 12:00",38.3445731095537,"Approved","OW429"
"2023-04-30 13:00",38.3447720029509,"Approved","OW429"
"2023-04-30 14:00",38.3469708963482,"Approved","OW429"
"2023-04-30 15:00",38.3512697897455,"Approved","OW429"
"2023-04-30 16:00",38.3498686831428,"Approved","OW429"
"2023-04-30 17:00",38.34916757654,"Approved","OW429"
"2023-04-30 18:00",38.3471664699373,"Approved","OW429"
"2023-04-30 19:00",38.3491653633346,"Approved","OW429"
"2023-04-30 20:00",38.3501642567318,"Approved","OW429"
"2023-04-30 21:00",38.3515631501291,"Approved","OW429"
"2023-04-30 22:00",38.3516620435264,"Approved","OW429"
"2023-04-30 23:00",38.3539609369236,"Approved","OW429"
"2023-05-01 00:00",38.3534598303209,"Approved","OW429"
"2023-05-01 01:00",38.3522587237182,"Approved","OW429"
"2023-05-01 02:00",38.3499576171155,"Approved","OW429"
"2023-05-01 03:00",38.3495565105127,"Approved","OW429"
"2023-05-01 04:00",38.35055540391,"Approved","OW429"
"2023-05-01 05:00",38.3505542973073,"Approved","OW429"
"2023-05-01 06:00",38.3501531907045,"Approved","OW429"
"2023-05-01 07:00",38.3531520841018,"Approved","OW429"
"2023-05-01 08:00",38.3485509774991,"Approved","OW429"
"2023-05-01 09:00",38.3471498708963,"Approved","OW429"
"2023-05-01 10:00",38.3458487642936,"Approved","OW429"
"2023-05-01 11:00",38.3433476576909,"Approved","OW429"
"2023-05-01 12:00",38.3408465510882,"Approved","OW429"
"2023-05-01 13:00",38.3368454444854,"Approved","OW429"
"2023-05-01 14:00",38.3375443378827,"Approved","OW429"
"2023-05-01 15:00",38.33854323128,"Approved","OW429"
"2023-05-01 16:00",38.3399421246772,"Approved","OW429"
"2023-05-01 17:00",38.3422410180745,"Approved","OW429"
"2023-05-01 18:00",38.3429399114718,"Approved","OW429"
"2023-05-01 19:00",38.3447388048691,"Approved","OW429"
"2023-05-01 20:00",38.3451376982663,"Approved","OW429"
"2023-05-01 21:00",38.3459365916636,"Approved","OW429"
"2023-05-01 22:00",38.3449354850609,"Approved","OW429"
"2023-05-01 23:00",38.3408343784581,"Approved","OW429"
"2023-05-02 00:00",38.3463332718554,"Approved","OW429"
"2023-05-02 01:00",38.3490321652527,"Approved","OW429"
"2023-05-02 02:00",38.3475310586499,"Approved","OW429"
"2023-05-02 03:00",38.3523299520472,"Approved","OW429"
"2023-05-02 04:00",38.3477288454445,"Approved","OW429"
"2023-05-02 05:00",38.3373277388418,"Approved","OW429"
"2023-05-02 06:00",38.337126632239,"Approved","OW429"
"2023-05-02 07:00",38.3332255256363,"Approved","OW429"
"2023-05-02 08:00",38.3346244190336,"Approved","OW429"
"2023-05-02 09:00",38.3258233124308,"Approved","OW429"
"2023-05-02 10:00",38.3239222058281,"Approved","OW429"
"2023-05-02 11:00",38.3248210992254,"Approved","OW429"
"2023-05-02 12:00",38.3230199926227,"Approved","OW429"
"2023-05-02 13:00",38.3193188860199,"Approved","OW429"
"2023-05-02 14:00",38.3175177794172,"Approved","OW429"
"2023-05-02 15:00",38.3179166728145,"Approved","OW429"
"2023-05-02 16:00",38.3195155662117,"Approved","OW429"
"2023-05-02 17:00",38.323914459609,"Approved","OW429"
"2023-05-02 18:00",38.3258133530063,"Approved","OW429"
"2023-05-02 19:00",38.3345122464035,"Approved","OW429"
"2023-05-02 20:00",38.3428111398008,"Approved","OW429"
"2023-05-02 21:00",38.3531100331981,"Approved","OW429"
"2023-05-02 22:00",38.3642089265954,"Approved","OW429"
"2023-05-02 23:00",38.3699078199926,"Approved","OW429"
"2023-05-03 00:00",38.3751067133899,"Approved","OW429"
"2023-05-03 01:00",38.3748056067872,"Approved","OW429"
"2023-05-03 02:00",38.3769045001844,"Approved","OW429"
"2023-05-03 03:00",38.3765033935817,"Approved","OW429"
"2023-05-03 04:00",38.370102286979,"Approved","OW429"
"2023-05-03 05:00",38.3692011803762,"Approved","OW429"
"2023-05-03 06:00",38.3702000737735,"Approved","OW429"
"2023-05-03 07:00",38.3662989671708,"Approved","OW429"
"2023-05-03 08:00",38.3612978605681,"Approved","OW429"
"2023-05-03 09:00",38.3575967539653,"Approved","OW429"
"2023-05-03 10:00",38.3512956473626,"Approved","OW429"
"2023-05-03 11:00",38.3459945407599,"Approved","OW429"
"2023-05-03 12:00",38.3445934341571,"Approved","OW429"
"2023-05-03 13:00",38.3422923275544,"Approved","OW429"
"2023-05-03 14:00",38.3351912209517,"Approved","OW429"
"2023-05-03 15:00",38.330890114349,"Approved","OW429"
"2023-05-03 16:00",38.3235890077462,"Approved","OW429"
"2023-05-03 17:00",38.3235879011435,"Approved","OW429"
"2023-05-03 18:00",38.3239867945408,"Approved","OW429"
"2023-05-03 19:00",38.329685687938,"Approved","OW429"
"2023-05-03 20:00",38.3369845813353,"Approved","OW429"
"2023-05-03 21:00",38.3416834747326,"Approved","OW429"
"2023-05-03 22:00",38.3545823681298,"Approved","OW429"
"2023-05-03 23:00",38.3623812615271,"Approved","OW429"
"2023-05-04 00:00",38.3645801549244,"Approved","OW429"
"2023-05-04 01:00",38.3657790483217,"Approved","OW429"
"2023-05-04 02:00",38.3720779417189,"Approved","OW429"
"2023-05-04 03:00",38.3640768351162,"Approved","OW429"
"2023-05-04 04:00",38.3483757285135,"Approved","OW429"
"2023-05-04 05:00",38.3602746219107,"Approved","OW429"
"2023-05-04 06:00",38.354373515308,"Approved","OW429"
"2023-05-04 07:00",38.3544724087053,"Approved","OW429"
"2023-05-04 08:00",38.3500713021025,"Approved","OW429"
"2023-05-04 09:00",38.3512701954998,"Approved","OW429"
"2023-05-04 10:00",38.3492690888971,"Approved","OW429"
"2023-05-04 11:00",38.3499679822944,"Approved","OW429"
"2023-05-04 12:00",38.3387668756916,"Approved","OW429"
"2023-05-04 13:00",38.3335657690889,"Approved","OW429"
"2023-05-04 14:00",38.3276646624862,"Approved","OW429"
"2023-05-04 15:00",38.3260635558834,"Approved","OW429"
"2023-05-04 16:00",38.3305624492807,"Approved","OW429"
"2023-05-04 17:00",38.342861342678,"Approved","OW429"
"2023-05-04 18:00",38.3477602360753,"Approved","OW429"
"2023-05-04 19:00",38.3498591294725,"Approved","OW429"
"2023-05-04 20:00",38.3522580228698,"Approved","OW429"
"2023-05-04 21:00",38.3547569162671,"Approved","OW429"
"2023-05-04 22:00",38.3554558096643,"Approved","OW429"
"2023-05-04 23:00",38.3566547030616,"Approved","OW429"
"2023-05-05 00:00",38.3598535964589,"Approved","OW429"
"2023-05-05 01:00",38.3550524898561,"Approved","OW429"
"2023-05-05 02:00",38.3522513832534,"Approved","OW429"
"2023-05-05 03:00",38.3575502766507,"Approved","OW429"
"2023-05-05 04:00",38.358549170048,"Approved","OW429"
"2023-05-05 05:00",38.3624480634452,"Approved","OW429"
"2023-05-05 06:00",38.3640469568425,"Approved","OW429"
"2023-05-05 07:00",38.3639458502398,"Approved","OW429"
"2023-05-05 08:00",38.368444743637,"Approved","OW429"
"2023-05-05 09:00",38.3685436370343,"Approved","OW429"
"2023-05-05 10:00",38.3730425304316,"Approved","OW429"
"2023-05-05 11:00",38.3753414238288,"Approved","OW429"
"2023-05-05 12:00",38.3771403172261,"Approved","OW429"
"2023-05-05 13:00",38.3834392106234,"Approved","OW429"
"2023-05-05 14:00",38.3859381040207,"Approved","OW429"
"2023-05-05 15:00",38.3887369974179,"Approved","OW429"
"2023-05-05 16:00",38.3914358908152,"Approved","OW429"
"2023-05-05 17:00",38.3952347842125,"Approved","OW429"
"2023-05-05 18:00",38.3954336776097,"Approved","OW429"
"2023-05-05 19:00",38.398932571007,"Approved","OW429"
"2023-05-05 20:00",38.4026314644043,"Approved","OW429"
"2023-05-05 21:00",38.4009303578015,"Approved","OW429"
"2023-05-05 22:00",38.3994292511988,"Approved","OW429"
"2023-05-05 23:00",38.3978281445961,"Approved","OW429"
"2023-05-06 00:00",38.3944270379934,"Approved","OW429"
"2023-05-06 01:00",38.3932259313906,"Approved","OW429"
"2023-05-06 02:00",38.3888248247879,"Approved","OW429"
"2023-05-06 03:00",38.3872237181852,"Approved","OW429"
"2023-05-06 04:00",38.3861226115824,"Approved","OW429"
"2023-05-06 05:00",38.3884215049797,"Approved","OW429"
"2023-05-06 06:00",38.384020398377,"Approved","OW429"
"2023-05-06 07:00",38.3870192917743,"Approved","OW429"
"2023-05-06 08:00",38.3860181851715,"Approved","OW429"
"2023-05-06 09:00",38.3866170785688,"Approved","OW429"
"2023-05-06 10:00",38.3865159719661,"Approved","OW429"
"2023-05-06 11:00",38.3856148653633,"Approved","OW429"
"2023-05-06 12:00",38.3858137587606,"Approved","OW429"
"2023-05-06 13:00",38.3835126521579,"Approved","OW429"
"2023-05-06 14:00",38.3824115455552,"Approved","OW429"
"2023-05-06 15:00",38.3837104389524,"Approved","OW429"
"2023-05-06 16:00",38.3846093323497,"Approved","OW429"
"2023-05-06 17:00",38.385608225747,"Approved","OW429"
"2023-05-06 18:00",38.3875071191442,"Approved","OW429"
"2023-05-06 19:00",38.3880060125415,"Approved","OW429"
"2023-05-06 20:00",38.3909049059388,"Approved","OW429"
"2023-05-06 21:00",38.392103799336,"Approved","OW429"
"2023-05-06 22:00",38.3897026927333,"Approved","OW429"
"2023-05-06 23:00",38.3909015861306,"Approved","OW429"
"2023-05-07 00:00",38.3896004795279,"Approved","OW429"
"2023-05-07 01:00",38.3892993729251,"Approved","OW429"
"2023-05-07 02:00",38.3896982663224,"Approved","OW429"
"2023-05-07 03:00",38.3898971597197,"Approved","OW429"
"2023-05-07 04:00",38.3895960531169,"Approved","OW429"
"2023-05-07 05:00",38.3859949465142,"Approved","OW429"
"2023-05-07 06:00",38.3868938399115,"Approved","OW429"
"2023-05-07 07:00",38.3896927333087,"Approved","OW429"
"2023-05-07 08:00",38.388391626706,"Approved","OW429"
"2023-05-07 09:00",38.3878905201033,"Approved","OW429"
"2023-05-07 10:00",38.3865894135006,"Approved","OW429"
"2023-05-07 11:00",38.3866883068978,"Approved","OW429"
"2023-05-07 12:00",38.3890872002951,"Approved","OW429"
"2023-05-07 13:00",38.3865860936924,"Approved","OW429"
"2023-05-07 14:00",38.3865849870896,"Approved","OW429"
"2023-05-07 15:00",38.3857838804869,"Approved","OW429"
"2023-05-07 16:00",38.3862827738842,"Approved","OW429"
"2023-05-07 17:00",38.3855816672814,"Approved","OW429"
"2023-05-07 18:00",38.3838805606787,"Approved","OW429"
"2023-05-07 19:00",38.384979454076,"Approved","OW429"